Regional Weather Roundup
Issued by NWS

Home | Current Version | Previous Version | Graphics & Text | Print | Product List | Glossary On
Versions: 1 2 3 4 5 6 7 8 9 10 11 12 13 14 15 16 17 18 19 20 21 22 23 24 25 26 27 28 29 30 31 32 33 34 35 36 37 38 39 40 41 42 43 44 45 46 47 48 49 50
942
ASUS43 KLOT 111208
RWRIL

ILLINOIS REGIONAL WEATHER ROUNDUP
NATIONAL WEATHER SERVICE CHICAGO/ROMEOVILLE IL
600 AM CST THU FEB 11 2016

NOTE: "FAIR" INDICATES FEW OR NO CLOUDS BELOW 12,000 FEET WITH NO
SIGNIFICANT WEATHER AND/OR OBSTRUCTIONS TO VISIBILITY.

* THESE STATIONS ARE NOT UNDER NWS QUALITY CONTROL. THEY ALSO MAY NOT
  REPORT WEATHER SUCH AS PRECIPITATION OR FOG.

ILZ001-002-007-009-015-016-024-111300-
NORTHWEST ILLINOIS

CITY           SKY/WX    TMP DP  RH WIND       PRES   REMARKS
MOLINE         CLOUDY    11   1  64 N6        30.30R WCI   1
6HR MIN TEMP:  10; 6HR MAX TEMP:  13;

STERLING*      CLEAR      9   0  66 N6        30.26S WCI  -1
SAVANNA*       PTCLDY     6  -2  68 N5        30.31R WCI  -2
$$

ILZ003-004-008-010-011-017-018-111300-
NORTH CENTRAL ILLINOIS

CITY           SKY/WX    TMP DP  RH WIND       PRES   REMARKS
ROCKFORD       CLEAR      7  -1  70 N7        30.30R WCI  -5
6HR MIN TEMP:   7; 6HR MAX TEMP:  11;

FREEPORT*      PTCLDY     3  -3  78 NW3       30.30R
ROCHELLE*      PTCLDY     6   0  78 NW5       30.29R WCI  -3
DE KALB*       PTCLDY     7   0  72 NW5       30.26R WCI  -2
$$

ILZ005-006-012>014-019>023-111300-
NORTHEAST ILLINOIS

CITY           SKY/WX    TMP DP  RH WIND       PRES   REMARKS
CHICAGO-OHARE  PTCLDY     7  -3  64 N9        30.26R WCI  -7
6HR MIN TEMP:   7; 6HR MAX TEMP:  12;

CHICAGO-MIDWAY PTCLDY    10  -3  55 NW10      30.26R WCI  -4
6HR MIN TEMP:  10; 6HR MAX TEMP:  14;

AURORA         CLEAR      7   0  73 NW7       30.27R WCI  -5
6HR MIN TEMP:   7; 6HR MAX TEMP:  10;

LANSING*       PTCLDY    10   1  65 NW7       30.25R WCI  -1
JOLIET*        PTCLDY    10   2  71 NW3       30.27R
WAUKEGAN       CLEAR      3  -3  76 NW5       30.24R WCI  -6
6HR MIN TEMP:   3; 6HR MAX TEMP:   8;

DUPAGE AIRPORT CLEAR      4  -4  69 CALM      30.25R
6HR MIN TEMP:   3; 6HR MAX TEMP:  11;

KANKAKEE*      CLEAR     11   2  67 NW5       30.27R WCI   3
WHEELING       CLEAR      6  -3  66 NW7       30.27R WCI  -6
6HR MIN TEMP:   6; 6HR MAX TEMP:  11;

MORRIS*        PTCLDY     9   2  74 NW3       30.25R
ROMEOVILLE*    PTCLDY     8   0  68 N8        30.27R WCI  -4
NORTHERLY ISL    N/A     12   1  61 NW7         N/A  WCI   2
$$

LMZ740>746-111300-
SOUTHERN LAKE MICHIGAN

STATION/POSITION SKY/WX   TEMP    WIND        PRES    VSBY  WAVE
                          AIR SEA DIR/SP/G                  HT/PER
                          (F)     (DEG/KT/KT) (MB)    (MI)  (FT/S)
HARRISON CRIB              13     310/ 15/ 16   N/A
BURNHAM HARBOR             12     290/  4/  8   N/A
CALUMET HARBOR             11     280/  5/  8 1023.0
BURNS HARBOR               18     320/ 14/ 21 1023.0R
MICHIGAN CITY              19     310/ 19/ 23   N/A
$$

ILZ025>027-034>036-040-047-049-050-058-095>099-111300-
WEST-CENTRAL ILLINOIS

CITY           SKY/WX    TMP DP  RH WIND       PRES   REMARKS
QUINCY         CLOUDY    14   5  67 NE9       30.27R WCI   2
GALESBURG*     CLOUDY     3  -1  85 N3        30.28R
MACOMB*        CLOUDY     9   4  83 N7        30.31R WCI  -3
JACKSONVILLE*  CLOUDY    19   9  66 NE8       30.27R WCI   9
PITTSFIELD*    CLOUDY    20  13  75 N7        30.28R WCI  11
$$

ILZ028>032-037-038-041>044-048-051>054-059>061-111300-
CENTRAL ILLINOIS

CITY           SKY/WX    TMP DP  RH WIND       PRES   REMARKS
PONTIAC        CLEAR     10   5  80 CALM      30.29R
BLOOMINGTON    CLOUDY    10   5  80 NW3       30.27R
DECATUR        CLEAR     11   4  73 NE5       30.27R WCI   3
PEORIA         CLEAR     10   3  73 N3        30.29R
6HR MIN TEMP:  10; 6HR MAX TEMP:  16;

LACON*         CLEAR      9   4  80 CALM      30.29R
LINCOLN*       CLEAR     11   7  83 N3        30.28R
SPRINGFIELD    CLOUDY    14   6  70 NE7       30.28R WCI   4
6HR MIN TEMP:  14; 6HR MAX TEMP:  21;

TAYLORVILLE    CLOUDY    16   9  73 N8        30.27R WCI   5
$$

ILZ033-039-045-046-055>057-062-063-111300-
EAST-CENTRAL ILLINOIS

CITY           SKY/WX    TMP DP  RH WIND       PRES   REMARKS
CHAMPAIGN      CLEAR      9   3  77 N6        30.26R WCI  -1
RANTOUL*       CLOUDY    12   7  82 NW5       30.26R WCI   4
MATTOON        CLOUDY    12   5  73 N8        30.25R WCI   0
PARIS*         CLEAR     12   7  82 CALM      30.27R
$$

ILZ079-100>102-111300-
SOUTHWEST ILLINOIS

CITY           SKY/WX    TMP DP  RH WIND       PRES   REMARKS
ALTON          CLOUDY    21  16  83 N5        30.27R WCI  14
BELLEVILLE     CLOUDY    22  18  84 NE5       30.26R WCI  16
CAHOKIA*       CLOUDY    23  17  78 NE6       30.27R WCI  16
SPARTA*        CLOUDY    22  18  86 NE5       30.27R WCI  15
$$

ILZ064>066-069>071-074>076-080>082-084>086-088>090-092>094-111300-
SOUTH-CENTRAL ILLINOIS

CITY           SKY/WX    TMP DP  RH WIND       PRES   REMARKS
CARBONDALE     CLOUDY    23  18  81 NE8       30.25R WCI  14
6HR MIN TEMP:  20; 6HR MAX TEMP:  23;

CAIRO*         MOCLDY    25  23  92 NE7       30.22R WCI  17
EFFINGHAM*     CLOUDY    20  11  67 N7        30.28R WCI  11
MARION         CLOUDY    25  21  86 NE8       30.26R WCI  16
MT. VERNON     CLOUDY    21  16  79 NE5       30.26R WCI  15
CENTRALIA*     CLOUDY    22  19  87 CALM      30.25R
SALEM*         CLOUDY    23  18  81 NE7       30.25R WCI  14
METROPOLIS*    CLOUDY    26  23  88 NE6       30.24R WCI  19
$$

ILZ067-068-072-073-078-083-087-091-111300-
SOUTHEAST ILLINOIS

CITY           SKY/WX    TMP DP  RH WIND       PRES   REMARKS
LAWRENCEVILLE  CLOUDY    20  13  74 N8        30.27R WCI  10
FLORA*         CLOUDY    23  17  77 N6        30.27R WCI  16
FAIRFIELD*     CLOUDY    23  19  84 NE5       30.26R WCI  16
HARRISBURG*    CLOUDY    23  19  87 NE7       30.27R WCI  14
ROBINSON*      CLOUDY    17   8  70 N5        30.29R WCI   9
CARMI*         CLOUDY    23  19  85 NE6       30.26R WCI  16
$$

ABBREVIATIONS USED IN REMARKS
   TC - TEMPERATURE IN CELSIUS
  WCI - WIND CHILL INDEX
   HX - HEAT INDEX
  VSB - VISIBILITY
$$





USA.gov is the U.S. government's official web portal to all federal, state and local government web resources and services.